This is the latest recevied weather packets stored in our database for station/object DG2GGP-11. If no packets are shown the sender has not sent any weather packets the latest 10 day(s).
| Time | Temp. | Humidity | Pressure | Rain* | Wind** | Luminosity | Snow |
|---|---|---|---|---|---|---|---|
| 1777721957 | 24.44° C | 31% | 1021.8 hPa | 0 mm | - | 49 W/m² | - |
| 1777721357 | 23.89° C | 31% | 1022 hPa | 0 mm | - | 45 W/m² | - |
| 1777720757 | 23.33° C | 31% | 1022.1 hPa | 0 mm | - | 48 W/m² | - |
| 1777720157 | 23.33° C | 33% | 1022.1 hPa | 0 mm | - | 44 W/m² | - |
| 1777719557 | 23.89° C | 31% | 1022.2 hPa | 0 mm | - | 46 W/m² | - |
| 1777718957 | 23.89° C | 31% | 1022.3 hPa | 0 mm | - | 46 W/m² | - |
| 1777718357 | 23.33° C | 34% | 1022.4 hPa | 0 mm | - | 46 W/m² | - |
| 1777717757 | 22.78° C | 32% | 1022.4 hPa | 0 mm | - | 45 W/m² | - |
| 1777717157 | 23.33° C | 32% | 1022.5 hPa | 0 mm | - | 47 W/m² | - |
| 1777716557 | 22.78° C | 32% | 1022.7 hPa | 0 mm | - | 47 W/m² | - |
| 1777715957 | 23.33° C | 32% | 1022.9 hPa | 0 mm | - | 48 W/m² | - |
| 1777715357 | 22.78° C | 33% | 1022.9 hPa | 0 mm | - | 48 W/m² | - |
| 1777714757 | 22.78° C | 33% | 1023 hPa | 0 mm | - | 51 W/m² | - |
| 1777714157 | 23.33° C | 32% | 1023.1 hPa | 0 mm | - | 47 W/m² | - |
| 1777713557 | 22.78° C | 34% | 1023.2 hPa | 0 mm | - | 45 W/m² | - |
| 1777712957 | 22.78° C | 36% | 1023.2 hPa | 0 mm | - | 48 W/m² | - |
| 1777712357 | 22.78° C | 36% | 1023.3 hPa | 0 mm | - | 48 W/m² | - |
| 1777711757 | 22.22° C | 37% | 1023.4 hPa | 0 mm | - | 47 W/m² | - |
| 1777711157 | 22.22° C | 40% | 1023.4 hPa | 0 mm | - | 46 W/m² | - |
| 1777710557 | 21.11° C | 39% | 1023.5 hPa | 0 mm | - | 46 W/m² | - |
| 1777709957 | 20.56° C | 40% | 1023.5 hPa | 0 mm | - | 43 W/m² | - |
| 1777709357 | 18.89° C | 41% | 1023.5 hPa | 0 mm | - | 42 W/m² | - |
| 1777708757 | 18.89° C | 44% | 1023.5 hPa | 0 mm | - | 42 W/m² | - |
| 1777708157 | 17.78° C | 47% | 1023.5 hPa | 0 mm | - | 40 W/m² | - |
| 1777707557 | 17.78° C | 48% | 1023.6 hPa | 0 mm | - | 38 W/m² | - |
* Rain latest hour (hover to see other rain measurements)
** Current wind speed in m/s (hover to see current wind gust speed)